Location: Unspecified
(0.0000°N, 0.0000°E)
Time: 08:32:41
(UTC+02:00)

CZ-4B DEB - Visible Passes

Search period start: 26 July 2016 00:00
Search period end: 05 August 2016 00:00
Orbit: 429 x 439 km, 97.4° (Epoch: 25 July)

Date Brightness Start Highest point End Pass type
(mag) Time Alt. Az. Time Alt. Az. Time Alt. Az.
26 Jul 3.6 21:29:15 38° NE 21:29:15 38° NE 21:31:38 10° N visible
27 Jul 6.1 22:22:19 13° WNW 22:22:19 13° WNW 22:22:57 10° WNW visible
28 Jul 3.8 21:42:02 41° N 21:42:02 41° N 21:44:16 10° N visible
29 Jul 4.8 21:01:44 15° ENE 21:01:44 15° ENE 21:03:08 10° NE visible
30 Jul 4.6 21:54:41 30° NW 21:54:41 30° NW 21:56:34 10° NNW visible
31 Jul 4.3 21:14:17 22° NE 21:14:17 22° NE 21:16:08 10° NNE visible
01 Aug 5.4 22:07:09 20° NW 22:07:09 20° NW 22:08:30 10° NW visible
02 Aug 4.0 21:26:40 29° NNE 21:26:40 29° NNE 21:28:37 10° N visible
03 Aug 6.1 22:19:28 13° WNW 22:19:28 13° WNW 22:20:01 10° NW visible
04 Aug 4.2 21:38:54 31° N 21:38:54 31° N 21:40:45 10° N visible
